Location: Santa Giusta
(39.8800°N, 8.6069°E)
Time: 18:09:14
(UTC+00:00)

ATLAS CENTAUR R/B - Pass Details

Date: 02 February 2023
Orbit: 449 x 650 km, 64.7° (Epoch: 28 March)

Event Time Altitude Azimuth Distance (km) Brightness Sun altitude
Rises 17:18:43 0° 242° (WSW) 2,986 7.1 -6.8°
Reaches altitude 10° 17:21:22 10° 254° (WSW) 2,069 6.1 -7.3°
Maximum altitude 17:25:21 26° 312° (NW) 1,269 3.6 -8.0°
Drops below altitude 10° 17:29:13 10° 9° (N) 2,017 4.0 -8.8°
Sets 17:31:47 0° 22° (NNE) 2,895 4.6 -9.2°
